Location: Unspecified
(43.4354°N, 0.0000°E)
Time: 00:39:33
(UTC+00:00)

S-56A Canister/Altair - Pass Details

Date: 01 July 2019
Orbit: 632 x 2500 km, 38.9° (Epoch: 21 July)

Event Time Altitude Azimuth Distance (km) Brightness Sun altitude
Rises 12:35:46 0° 232° (SW) 6,135 12.4 68.6°
Reaches altitude 10° 12:40:06 10° 228° (SW) 5,032 12.1 68.3°
Maximum altitude 12:53:24 51° 158° (SSE) 2,383 11.3 67.2°
Drops below altitude 10° 13:03:02 10° 87° (E) 3,714 11.0 66.3°
Sets 13:05:44 0° 82° (E) 4,465 11.3 66.0°
